Temperature
23 23 22 22 21 21 20 20 19 19 19 19 18 18 17 17 17 17 17 17 17 17 17 17 17 17 17 17 17 17 17 18 18 18 18 18 18 18 18 17 17 17 17
22 23 22 22 21 21 20 20 19 19 19 18 18 18 17 17 17 17 17 17 17 17 17 17 17 17 17 17 17 17 17 17 18 18 18 18 18 18 18 17 17 17 17
22 22 22 22 21 21 20 20 19 19 19 18 18 18 18 17 17 17 17 17 17 16 16 17 17 17 17 17 17 17 17 17 17 17 17 17 17 17 17 17 17 17 17
21 22 22 22 21 21 20 20 20 19 19 19 18 18 18 17 17 17 17 16 16 16 16 16 17 17 17 17 17 17 17 17 17 17 17 16 17 17 17 17 17 17 17
21 21 21 21 21 21 21 20 20 20 19 19 18 18 18 18 17 17 17 16 16 16 16 16 16 16 16 16 17 17 17 17 17 17 17 16 16 16 17 17 17 17 17
21 21 21 20 20 20 20 20 20 20 20 19 19 18 18 18 17 17 17 16 16 16 16 16 16 16 16 16 16 16 16 16 16 16 16 16 16 16 16 17 17 17 17
21 21 21 20 20 20 20 20 20 20 19 19 19 19 18 17 17 17 16 16 16 16 16 16 16 16 16 16 16 16 16 16 16 16 16 16 16 16 16 17 17 17 17
21 20 20 20 20 20 20 19 19 19 19 19 19 18 18 18 17 17 16 16 16 16 16 16 16 16 16 16 16 16 16 16 16 16 16 15 16 16 16 16 17 16 16
21 20 19 19 20 19 19 18 18 18 18 18 18 18 18 17 17 17 16 16 16 16 16 16 16 16 16 16 16 16 16 16 16 16 16 16 16 16 16 16 16 16 17
20 19 19 18 18 18 18 18 17 17 17 17 17 17 17 17 17 17 16 16 16 15 15 16 16 16 16 16 16 16 16 16 16 16 15 15 16 16 16 16 16 16 16
20 19 19 18 18 17 17 17 17 16 16 17 17 17 16 16 16 15 15 15 15 15 15 15 16 16 16 16 16 16 16 16 16 16 15 15 16 16 16 16 16 16 16
20 19 19 18 18 18 17 16 16 16 15 16 16 15 15 15 15 14 14 14 14 14 14 15 15 16 16 16 16 16 15 15 15 15 15 15 15 16 16 16 16 16 16
20 19 18 17 18 18 17 16 16 15 15 15 15 15 15 14 14 14 14 14 14 14 14 15 15 16 16 16 16 15 15 15 15 15 15 15 15 15 16 16 16 16 16
18 17 17 17 17 17 17 16 16 15 15 15 15 15 15 15 14 14 14 14 14 14 13 13 13 14 14 15 15 14 15 14 14 14 14 14 15 15 15 15 15 15 15
18 17 16 16 16 16 16 16 16 15 15 15 15 15 14 14 14 14 14 14 14 13 13 13 13 13 13 14 14 14 14 14 14 14 14 14 15 15 15 15 15 15 15
17 17 16 16 15 15 15 15 15 15 15 15 14 14 14 14 14 14 13 13 13 13 13 13 13 13 13 14 14 14 14 14 15 14 14 14 14 15 15 15 15 15 15
15 15 15 15 15 15 15 14 14 15 15 14 14 14 14 14 13 13 13 13 13 13 13 12 12 13 13 13 14 14 14 14 14 15 14 14 14 14 14 15 15 15 15
14 15 15 14 14 14 14 14 14 14 14 14 14 14 14 13 13 12 12 12 12 12 12 12 12 13 13 13 13 13 14 14 14 14 14 14 14 14 14 14 14 15 15
13 14 14 14 13 13 13 13 13 13 13 14 13 13 13 13 13 12 12 12 12 12 12 12 12 12 12 13 13 13 13 13 14 14 14 14 14 14 14 14 14 14 14
12 13 13 13 13 13 13 12 13 13 13 13 13 13 13 13 12 12 12 12 12 12 12 12 12 12 12 12 12 12 12 13 13 13 13 13 13 13 13 14 14 13 13
10 11 12 12 13 12 12 12 12 12 12 12 12 12 12 12 12 11 11 11 11 11 11 11 11 11 11 11 11 12 12 12 12 13 13 13 13 13 13 13 13 13 13
7 8 9 10 11 11 11 11 11 11 11 12 12 12 12 12 11 11 11 11 11 11 11 10 10 11 10 11 11 11 11 12 12 12 12 13 13 13 12 12 12 12 12
7 6 6 7 7 8 8 9 10 10 10 11 11 11 11 11 10 10 10 10 10 10 10 10 10 10 10 10 10 10 10 11 11 11 11 11 12 12 12 12 11 11 11
7 6 6 6 6 6 7 7 8 8 9 10 10 11 10 10 10 9 10 10 10 10 9 9 9 9 9 9 9 9 10 10 10 10 10 10 10 10 10 10 10 10 10
6 6 6 6 6 5 5 6 6 7 7 8 9 10 10 10 9 9 9 9 9 9 8 8 9 9 9 9 9 9 9 9 10 10 10 10 10 10 9 9 9 9 9
6 6 6 6 5 5 5 4 4 5 6 7 8 9 9 9 9 9 9 8 8 8 8 8 8 8 8 8 8 8 8 8 8 9 9 9 9 9 9 9 9 9 9
Wind_Speed
7 10 16 13 11 10 9 7 7 6 5 4 3 3 2 2 1 2 2 2 3 3 2 2 2 1 1 0 1 2 2 4 5 6 6 6 6 6 6 5 5 5 6
10 13 15 12 11 10 9 8 7 6 5 3 2 1 1 0 1 2 3 4 5 5 5 4 3 3 3 2 1 2 3 4 3 3 3 4 7 6 6 6 7 7 6
10 14 13 11 10 10 9 8 7 7 6 5 3 2 1 0 1 2 3 4 6 7 6 5 4 4 4 3 2 3 5 4 3 2 4 5 8 8 7 6 6 6 6
9 13 14 14 11 10 9 9 8 7 6 5 4 3 1 0 1 3 4 4 4 5 5 5 4 4 4 3 4 5 7 6 5 5 7 7 9 10 8 6 6 7 7
8 10 16 17 12 10 10 9 9 8 7 5 4 4 3 2 2 3 2 0 1 1 2 2 3 3 4 4 5 7 7 8 7 7 10 2 11 12 9 7 7 7 8
9 12 18 16 13 12 11 10 9 9 8 7 6 5 4 4 2 2 1 3 3 2 1 1 2 3 4 4 6 8 8 8 8 8 11 2 12 11 9 8 7 6 7
4 13 17 16 13 12 11 10 10 9 8 8 7 5 5 5 4 3 1 2 2 2 1 1 2 3 4 5 6 7 8 8 8 7 9 2 13 11 8 7 5 4 4
5 9 15 16 13 11 10 10 9 9 9 9 8 6 6 6 6 6 5 4 4 3 2 2 3 4 5 5 6 6 6 7 9 9 8 5 15 11 7 6 5 3 1
7 3 8 13 13 12 11 10 9 8 8 9 8 8 7 7 7 7 6 4 5 5 3 1 2 4 5 5 5 6 7 8 7 7 6 9 14 11 8 7 5 3 2
3 2 3 4 12 14 14 15 12 9 8 8 8 8 6 5 6 7 7 6 5 4 4 2 1 3 4 4 5 6 8 8 8 10 5 10 13 11 10 9 6 4 3
6 4 3 6 4 1 7 15 14 11 9 8 9 10 7 7 9 11 11 8 7 4 3 4 4 2 3 7 9 9 9 8 10 10 5 13 13 11 11 11 8 6 6
6 8 7 6 7 5 3 7 10 11 11 11 11 13 12 11 12 9 9 10 8 7 8 10 11 9 8 9 13 14 10 12 11 8 7 15 13 12 12 11 9 7 6
9 10 7 6 5 6 3 2 1 2 6 10 12 11 11 9 6 5 7 8 10 10 9 11 12 10 10 9 7 9 12 12 9 8 11 15 13 12 12 11 9 7 6
10 9 7 7 5 5 4 3 3 2 1 2 3 3 2 1 2 2 2 3 5 5 5 5 4 7 9 10 9 7 8 6 7 8 12 16 14 13 13 12 11 9 8
7 8 6 5 6 5 4 2 2 4 2 2 2 3 3 1 2 3 3 2 2 1 2 3 5 7 7 6 5 7 7 6 7 9 11 16 16 14 13 13 12 11 10
10 9 8 8 8 6 3 2 3 2 1 2 1 3 5 2 2 2 2 2 2 2 3 3 6 6 6 6 8 7 6 4 5 7 9 14 16 15 14 14 14 13 12
13 11 9 7 8 9 7 5 5 3 3 2 2 4 5 4 3 3 3 3 4 4 4 4 7 6 5 3 4 5 5 5 5 6 9 12 13 14 14 14 15 15 13
18 17 14 10 8 9 9 7 5 4 4 3 3 3 6 6 4 3 4 5 5 4 4 5 6 5 5 4 4 3 5 5 7 6 8 10 12 12 14 15 14 14 14
21 21 19 16 12 9 8 7 6 6 5 3 4 3 4 6 5 3 5 5 4 5 5 5 5 4 4 5 5 5 5 6 7 8 7 8 10 13 14 16 16 14 13
20 21 21 19 17 13 8 6 6 6 5 4 4 3 4 4 7 4 4 5 4 3 4 4 5 4 3 3 4 4 4 5 5 6 7 6 7 10 12 13 13 13 14
19 20 21 20 19 16 11 8 7 6 6 5 5 4 4 5 6 4 3 4 2 2 4 5 3 3 2 2 2 3 3 5 6 5 4 4 6 7 8 9 10 10 10
13 15 17 18 18 17 14 12 9 8 6 6 4 2 3 5 5 4 4 3 3 1 3 4 2 2 2 2 1 1 2 3 4 4 3 3 4 4 4 4 5 5 7
10 10 13 13 15 17 17 13 13 9 6 5 5 4 5 6 5 4 4 3 2 0 2 3 2 2 2 3 2 1 0 2 2 1 0 1 2 3 4 4 4 5 5
9 8 9 10 11 12 15 17 19 15 11 9 7 6 7 8 6 4 3 3 3 2 2 3 1 1 2 2 1 1 1 1 2 1 2 2 4 5 5 4 3 3 4
10 9 10 11 10 11 13 15 17 17 15 12 10 9 7 7 7 5 3 3 3 2 2 3 2 2 2 1 1 1 2 3 2 2 0 1 3 3 4 4 3 1 2
12 12 12 12 10 9 10 11 13 18 19 19 15 12 7 4 4 5 3 3 2 1 2 2 2 1 1 0 1 2 2 1 1 1 1 1 2 2 3 3 1 2 2
Wind_Direction
125 128 157 167 172 174 181 184 180 168 152 131 124 131 127 127 150 165 175 189 199 194 190 198 197 219 265 308 73 103 119 109 90 82 78 85 92 93 91 77 32 75 89
122 130 158 167 175 180 185 189 187 174 162 156 157 149 112 189 239 243 227 225 220 214 210 216 226 230 239 249 241 192 167 136 112 112 130 132 115 103 87 66 54 58 64
117 129 155 169 178 184 187 190 187 183 179 181 183 180 51 8 279 289 263 242 232 225 220 223 239 238 238 243 241 219 192 161 155 207 241 210 144 116 96 75 61 56 51
114 138 158 167 177 185 190 191 191 192 197 198 201 211 199 44 341 315 299 254 238 228 226 236 256 258 251 240 233 215 196 179 187 235 257 231 156 125 110 95 76 60 48
132 128 145 156 170 182 192 195 196 199 197 207 223 240 228 242 308 308 321 191 187 225 228 242 265 274 265 258 242 225 207 194 199 241 269 260 124 127 122 109 95 75 64
148 122 135 152 167 182 192 197 200 204 201 214 219 233 234 234 261 337 49 108 107 107 140 244 281 273 265 256 241 234 223 213 205 244 271 104 118 131 130 117 102 90 78
82 120 139 154 170 184 194 200 205 208 211 222 213 222 226 222 239 252 228 145 131 131 166 251 282 278 272 264 248 240 235 230 227 263 278 159 126 133 135 134 124 109 89
70 113 142 158 173 188 199 208 213 214 218 228 218 218 219 217 227 231 232 214 192 178 190 249 275 278 281 276 259 242 234 232 228 233 249 131 129 131 139 149 153 151 150
55 77 142 162 175 187 200 211 217 221 226 230 219 223 236 236 230 232 221 222 217 212 201 233 304 282 281 278 261 238 225 230 260 270 255 135 139 144 157 166 166 176 203
67 47 10 188 179 180 191 201 200 210 227 229 220 223 226 229 230 228 213 213 197 190 192 194 265 304 282 272 253 232 226 224 238 261 253 135 144 158 174 178 172 170 177
177 133 70 346 5 190 191 180 187 195 213 224 219 215 205 230 232 216 217 184 161 166 206 224 224 236 273 261 239 223 214 215 227 240 220 145 150 165 180 181 169 158 155
115 74 47 17 3 340 335 145 181 190 194 208 220 201 205 223 234 216 168 165 186 214 232 241 240 237 238 244 232 213 207 216 230 221 166 152 156 170 182 181 173 166 166
68 59 36 21 3 353 347 33 331 211 183 204 227 203 197 211 214 175 166 187 206 220 229 240 233 234 231 231 228 198 207 211 210 200 165 161 163 178 188 186 182 180 178
67 68 36 6 20 13 4 61 339 302 222 256 271 257 216 204 223 218 209 215 207 208 214 224 213 228 226 228 226 209 208 191 193 194 170 167 171 184 193 192 190 188 185
44 76 61 9 11 24 18 67 279 290 286 258 243 297 289 259 241 234 224 202 219 262 273 246 247 248 243 245 244 227 210 184 193 193 170 176 178 186 196 197 196 196 193
17 36 41 24 7 2 339 318 258 281 250 283 284 253 261 251 260 245 239 219 240 248 256 266 264 256 237 227 237 228 183 166 204 204 176 183 185 186 196 201 201 201 196
6 8 13 17 3 340 337 347 338 315 298 296 293 291 287 247 223 246 243 236 232 234 251 262 271 275 280 270 241 191 168 190 215 216 190 174 183 191 198 202 203 201 201
9 4 359 356 352 338 333 334 330 319 327 331 310 308 305 297 249 225 233 235 228 221 232 245 254 265 269 275 268 219 193 203 228 224 197 178 176 187 200 205 205 204 204
13 7 359 352 346 333 324 320 304 297 315 314 299 288 288 298 288 251 241 241 225 219 233 254 256 250 253 257 253 242 216 207 223 230 211 193 186 183 188 204 208 210 213
14 9 3 355 348 340 330 322 316 311 301 287 285 279 282 293 286 262 264 256 249 239 247 261 276 279 259 265 269 266 236 220 224 230 232 218 199 191 182 185 197 212 218
14 8 3 358 351 346 338 329 316 303 290 272 252 254 271 271 277 268 274 286 277 274 261 250 256 288 284 346 309 287 274 238 225 222 230 242 220 204 190 178 176 185 202
15 6 359 357 349 344 337 328 311 296 292 293 285 278 297 286 278 269 255 261 250 237 320 297 261 256 241 193 223 295 303 292 249 209 211 238 219 180 175 167 167 153 134
9 360 352 349 350 346 339 334 329 314 297 286 280 260 256 263 260 261 280 287 296 146 298 294 295 266 261 233 192 155 228 289 322 349 88 42 122 128 124 115 105 110 110
352 343 339 343 347 348 347 345 339 327 312 291 268 235 217 230 237 227 254 289 306 307 294 286 259 50 58 357 1 86 90 69 47 27 37 84 90 90 96 89 83 120 137
338 335 338 339 342 346 349 346 339 330 322 315 309 290 237 208 210 203 205 275 291 299 303 328 20 43 52 9 339 30 43 40 32 81 138 112 70 74 95 96 88 52 133
338 337 335 329 328 336 340 339 334 328 323 316 308 299 276 232 197 182 182 225 256 349 14 13 4 344 254 317 34 52 99 126 215 150 157 179 158 172 120 112 146 228 157
Height
1498 1498 1498 1498 1498 1499 1499 1500 1501 1502 1504 1505 1507 1508 1509 1510 1511 1512 1513 1514 1515 1517 1518 1519 1520 1521 1522 1523 1523 1524 1525 1526 1527 1527 1528 1528 1529 1530 1530 1530 1531 1532 1533
1498 1498 1498 1499 1499 1499 1500 1500 1501 1502 1503 1505 1506 1507 1508 1509 1510 1511 1512 1513 1514 1516 1517 1518 1519 1520 1521 1522 1523 1524 1525 1526 1527 1528 1528 1529 1529 1530 1531 1531 1531 1532 1533
1498 1498 1499 1499 1499 1500 1500 1501 1501 1502 1503 1504 1506 1506 1507 1508 1509 1510 1511 1512 1513 1515 1516 1517 1518 1519 1520 1521 1522 1523 1524 1525 1527 1528 1529 1529 1529 1530 1531 1531 1532 1532 1533
1499 1498 1499 1499 1500 1500 1500 1501 1501 1502 1502 1504 1505 1506 1506 1507 1508 1509 1510 1511 1512 1513 1514 1516 1517 1518 1519 1520 1521 1522 1523 1525 1527 1528 1528 1529 1530 1530 1530 1531 1531 1532 1533
1499 1499 1499 1499 1500 1500 1501 1501 1501 1501 1502 1503 1503 1504 1505 1506 1507 1508 1509 1510 1511 1512 1513 1514 1515 1516 1518 1519 1520 1521 1522 1524 1526 1527 1528 1529 1529 1530 1530 1530 1531 1531 1532
1499 1497 1499 1499 1500 1500 1501 1501 1501 1501 1501 1502 1502 1503 1503 1504 1505 1506 1507 1508 1509 1511 1512 1513 1514 1515 1516 1517 1519 1520 1522 1523 1524 1525 1527 1528 1528 1529 1530 1530 1530 1531 1532
1500 1497 1498 1499 1500 1500 1500 1500 1500 1500 1500 1500 1501 1501 1502 1502 1503 1504 1506 1507 1508 1509 1510 1511 1512 1514 1515 1516 1517 1518 1519 1521 1522 1524 1526 1527 1527 1528 1529 1529 1529 1530 1530
1499 1497 1497 1498 1498 1498 1498 1498 1498 1498 1498 1499 1499 1500 1500 1500 1501 1503 1504 1505 1506 1507 1508 1509 1510 1512 1513 1514 1515 1516 1517 1519 1521 1522 1524 1525 1525 1526 1527 1528 1528 1529 1529
1497 1497 1497 1496 1497 1497 1497 1497 1497 1497 1497 1497 1497 1497 1498 1498 1499 1500 1501 1502 1503 1504 1506 1507 1508 1509 1510 1511 1512 1514 1515 1516 1518 1520 1522 1523 1523 1524 1525 1526 1526 1527 1528
1495 1496 1497 1497 1495 1494 1494 1495 1495 1495 1495 1495 1496 1496 1496 1496 1497 1498 1499 1500 1501 1502 1503 1504 1505 1506 1507 1509 1510 1511 1512 1514 1516 1518 1519 1520 1521 1522 1523 1523 1524 1525 1526
1494 1494 1495 1495 1496 1495 1494 1492 1492 1492 1493 1493 1494 1494 1494 1495 1495 1496 1497 1497 1498 1499 1500 1501 1502 1503 1504 1505 1507 1508 1509 1511 1513 1515 1517 1517 1518 1519 1520 1521 1522 1522 1523
1495 1494 1494 1494 1493 1493 1493 1492 1490 1490 1490 1491 1492 1492 1493 1493 1494 1495 1495 1495 1496 1497 1498 1498 1499 1500 1500 1502 1503 1504 1505 1508 1510 1512 1513 1514 1516 1517 1518 1519 1519 1520 1521
1494 1493 1494 1493 1492 1492 1491 1491 1491 1490 1490 1490 1491 1492 1492 1493 1494 1494 1493 1493 1493 1493 1494 1494 1495 1496 1497 1498 1499 1500 1502 1503 1505 1508 1509 1511 1512 1514 1515 1516 1517 1518 1519
1494 1494 1494 1493 1492 1491 1491 1490 1490 1490 1490 1490 1491 1492 1492 1492 1492 1491 1491 1491 1490 1490 1490 1490 1491 1492 1493 1495 1496 1498 1499 1500 1502 1504 1505 1506 1508 1510 1512 1513 1514 1515 1517
1496 1494 1494 1493 1492 1491 1490 1490 1489 1489 1489 1490 1489 1490 1490 1489 1489 1489 1488 1488 1488 1488 1488 1488 1488 1488 1490 1491 1493 1494 1496 1496 1497 1499 1500 1502 1504 1506 1508 1509 1510 1512 1514
1496 1495 1494 1493 1492 1491 1491 1490 1489 1489 1489 1488 1488 1487 1487 1487 1486 1486 1485 1485 1485 1484 1485 1485 1485 1485 1486 1486 1487 1489 1490 1491 1492 1494 1495 1496 1499 1501 1503 1505 1507 1508 1510
1495 1495 1494 1493 1492 1491 1491 1490 1489 1488 1488 1487 1486 1485 1484 1484 1483 1482 1482 1481 1481 1481 1480 1480 1481 1481 1482 1482 1483 1484 1485 1486 1487 1489 1490 1491 1494 1496 1498 1500 1502 1504 1506
1495 1494 1494 1493 1492 1491 1490 1489 1488 1487 1486 1484 1483 1482 1481 1480 1480 1479 1478 1478 1477 1477 1477 1477 1476 1476 1477 1477 1478 1479 1479 1481 1482 1484 1485 1486 1488 1491 1493 1495 1498 1500 1501
1496 1494 1493 1491 1490 1490 1488 1487 1486 1485 1484 1482 1480 1479 1477 1476 1475 1475 1474 1474 1474 1474 1474 1473 1473 1472 1472 1472 1472 1473 1474 1475 1477 1479 1480 1481 1483 1485 1488 1491 1493 1495 1497
1498 1496 1493 1491 1489 1487 1486 1484 1483 1482 1480 1479 1477 1475 1474 1472 1471 1471 1471 1471 1471 1471 1470 1470 1469 1469 1468 1468 1468 1468 1469 1470 1472 1473 1475 1477 1479 1480 1483 1485 1488 1490 1492
1500 1497 1494 1491 1488 1485 1483 1481 1480 1479 1477 1475 1473 1471 1470 1468 1467 1467 1466 1467 1467 1467 1467 1466 1465 1465 1464 1464 1464 1464 1465 1466 1467 1468 1470 1472 1474 1476 1479 1481 1483 1485 1487
1502 1499 1495 1491 1488 1485 1482 1478 1476 1475 1473 1471 1469 1467 1465 1464 1464 1463 1462 1462 1463 1462 1463 1463 1462 1462 1461 1461 1461 1461 1462 1463 1462 1463 1465 1467 1469 1471 1473 1476 1478 1481 1482
1503 1500 1496 1491 1487 1483 1479 1474 1471 1469 1467 1466 1464 1462 1460 1459 1459 1458 1458 1459 1459 1458 1458 1459 1459 1459 1459 1459 1458 1459 1460 1459 1459 1460 1461 1463 1465 1467 1469 1471 1474 1476 1478
1503 1499 1494 1488 1485 1481 1476 1470 1467 1464 1462 1461 1459 1456 1454 1454 1454 1453 1454 1455 1455 1454 1455 1455 1455 1455 1456 1456 1456 1457 1458 1458 1458 1458 1460 1461 1462 1464 1465 1468 1471 1472 1474
1500 1495 1490 1485 1481 1477 1473 1469 1464 1461 1458 1455 1453 1451 1449 1448 1448 1449 1449 1451 1451 1451 1451 1451 1451 1451 1452 1453 1454 1454 1455 1456 1456 1457 1458 1460 1461 1462 1464 1466 1469 1470 1471
1495 1491 1487 1483 1479 1474 1470 1466 1462 1457 1453 1449 1447 1446 1445 1444 1443 1443 1444 1446 1447 1447 1447 1447 1447 1447 1448 1449 1450 1451 1452 1453 1454 1455 1456 1458 1459 1461 1462 1464 1466 1468 1469